Wind_Speed
7 1 9 19 21 8 11 10 19 23 22 19 18 17 17 15 14 13 13 14 14 15 17 15 15 16 16 16 15 14 14 13 13 11 8 6 6 9 11 13 14 14 15
15 11 14 15 14 17 11 7 11 18 16 14 13 12 13 14 13 14 15 16 15 14 15 15 16 18 16 17 17 17 15 13 16 11 11 4 6 11 13 13 15 16 16
14 12 16 11 12 13 12 8 8 13 14 15 15 11 11 8 13 14 15 15 14 16 17 18 17 18 17 18 18 19 19 16 17 16 7 3 4 11 16 17 16 16 17
21 15 15 16 15 9 3 2 5 8 13 16 15 13 11 9 11 12 13 14 16 15 16 17 16 15 18 17 19 19 20 17 16 17 20 8 3 3 3 15 18 18 19
20 18 24 30 27 14 11 5 3 3 11 14 11 9 7 5 6 8 10 13 14 17 18 19 20 20 20 21 20 20 22 22 19 22 14 17 9 7 3 3 12 18 20
19 23 29 31 32 36 23 9 5 1 4 12 14 12 7 5 4 5 8 10 12 14 18 20 21 22 22 23 24 23 23 24 24 20 23 19 13 13 9 4 13 16 18
19 20 24 29 32 33 32 32 27 5 2 4 7 9 10 8 6 8 10 10 10 13 17 20 22 23 24 25 26 25 25 26 25 27 23 24 23 19 18 16 10 7 12
19 20 26 28 28 32 34 31 32 30 31 20 11 6 10 10 11 10 11 12 12 12 12 14 19 21 22 24 25 26 27 27 28 28 28 26 26 25 24 20 15 4 6
17 18 24 26 27 25 25 30 29 28 29 27 23 20 16 10 10 9 13 16 14 13 13 14 15 19 22 23 25 25 27 27 27 28 29 29 27 26 26 27 26 17 7
16 17 20 21 22 24 24 24 24 23 25 24 24 22 20 16 12 9 11 14 16 16 17 19 18 19 21 25 26 26 28 27 28 28 28 29 28 28 26 28 27 26 23
16 14 20 22 23 22 22 23 23 23 26 27 25 23 22 20 18 16 12 14 17 19 17 18 18 22 23 23 24 25 25 25 26 25 27 28 28 29 29 28 28 28 26
12 15 17 18 20 22 23 23 22 24 25 24 20 18 18 20 17 16 15 14 16 16 18 21 18 23 24 25 27 33 30 30 27 30 30 32 30 30 28 28 29 29 29
10 11 15 19 21 21 23 24 24 24 23 22 21 21 21 21 20 20 19 18 18 18 17 17 21 24 24 23 25 28 32 35 33 34 33 36 35 31 35 31 29 28 28
11 11 13 15 16 18 21 22 23 23 24 23 22 21 21 22 23 23 23 22 21 21 20 19 20 21 23 25 26 27 29 30 29 33 41 37 36 38 36 36 37 34 32
13 15 14 19 20 21 21 21 22 22 23 23 23 23 23 22 23 23 24 24 24 24 24 24 23 22 22 26 28 29 28 28 31 32 34 36 38 40 39 37 36 33 30
13 14 17 20 22 23 23 23 22 23 22 22 22 23 25 26 26 26 26 26 26 25 25 25 25 26 24 25 28 27 28 30 30 31 33 36 36 39 40 41 37 40 35
12 13 16 18 21 23 25 27 27 26 24 23 23 24 26 27 28 28 28 27 28 28 28 28 27 28 26 27 29 31 30 31 32 31 31 32 33 35 36 37 36 36 37
12 15 17 20 20 21 23 24 25 26 28 27 27 27 27 27 28 28 28 30 30 30 29 30 29 30 30 29 30 32 33 34 34 34 32 31 31 33 32 31 30 32 33
13 15 16 18 20 20 22 23 24 24 24 25 29 30 29 29 29 30 30 30 30 31 31 30 31 32 33 32 31 32 30 32 35 36 34 33 31 33 30 32 32 29 28
12 16 17 18 18 20 21 23 23 24 23 26 28 29 30 29 30 30 30 31 31 31 31 32 32 34 37 34 33 32 32 29 29 33 35 34 33 31 29 33 32 30 31
13 14 16 16 17 19 21 22 23 23 25 27 28 30 30 31 31 33 32 32 33 33 34 34 35 35 34 35 34 34 35 32 26 29 28 32 33 30 31 38 37 39 34
15 15 16 17 18 18 20 22 23 25 27 28 28 30 30 31 33 33 35 34 33 34 34 31 34 32 32 32 33 36 39 35 31 28 29 32 34 35 35 39 36 30 31
18 18 17 20 19 18 19 23 24 25 27 27 28 30 32 31 29 30 31 32 31 30 32 31 31 32 31 29 32 32 35 36 36 32 33 35 35 33 38 38 35 30 33
17 18 19 21 22 21 21 23 24 25 26 27 28 30 32 32 31 29 30 31 30 30 31 30 30 32 31 30 30 27 28 31 34 33 33 33 32 31 34 33 32 34 35
17 18 19 20 22 22 23 24 24 24 26 27 28 28 28 30 32 32 30 32 33 33 36 34 34 30 30 29 29 26 23 24 26 24 27 26 25 24 25 27 31 33 30
19 19 20 22 23 23 24 24 23 23 25 27 26 27 30 30 30 32 35 32 33 38 37 38 38 34 32 32 33 34 29 26 25 21 19 22 24 25 27 29 28 30 29
Wind_Direction
315 114 106 82 69 68 91 106 148 151 140 141 148 166 170 170 186 194 196 201 198 196 196 199 197 195 196 196 197 194 189 187 178 160 158 177 197 206 208 202 203 199 200
269 168 105 85 118 91 91 114 124 133 139 149 158 156 168 184 197 199 201 198 198 196 195 196 196 196 195 197 194 193 186 187 180 175 168 180 201 220 217 210 205 210 208
80 72 65 60 66 77 101 116 211 185 170 157 151 151 174 182 202 202 202 203 202 206 200 199 199 199 197 199 197 198 191 186 194 197 172 169 224 166 205 208 210 210 206
21 45 62 56 62 68 98 154 224 217 183 166 171 170 183 199 208 209 202 209 213 213 213 203 203 203 203 202 203 204 205 202 196 209 225 258 297 173 150 205 211 213 212
31 34 38 34 24 38 56 48 26 240 201 183 179 184 193 221 216 205 213 215 225 218 220 219 215 214 213 215 210 208 209 210 211 202 207 221 229 237 255 173 199 215 217
28 36 41 39 31 27 30 28 33 38 173 207 196 176 178 204 233 241 234 227 223 230 226 229 227 229 226 226 221 216 213 214 218 216 213 208 199 207 212 239 185 206 214
33 34 35 30 29 30 30 28 36 27 57 237 227 216 214 200 260 259 261 249 232 227 239 236 233 233 234 233 231 222 217 218 220 221 219 217 217 221 217 223 209 186 205
28 34 31 28 27 26 24 31 30 28 40 32 14 317 264 248 241 262 272 267 256 245 246 244 243 243 241 240 235 229 226 224 223 223 224 223 224 224 226 217 217 199 190
28 30 30 29 27 25 21 27 25 25 25 30 21 33 30 2 294 283 287 265 263 262 254 242 245 251 248 244 239 231 231 227 225 226 227 229 229 229 227 223 216 207 208
27 23 24 24 23 20 22 25 26 23 20 21 21 21 25 14 360 357 329 316 309 282 261 259 254 254 257 249 239 232 237 233 231 227 227 227 229 230 227 225 227 229 232
16 17 18 15 14 15 19 17 16 16 14 11 11 12 13 13 11 3 345 316 307 302 291 278 274 267 260 248 244 235 231 231 231 230 230 231 229 225 227 225 226 226 227
12 12 11 10 8 10 12 11 10 11 9 3 3 3 2 2 5 359 350 334 317 307 299 290 281 271 266 257 258 245 232 228 231 232 230 229 224 227 224 223 219 223 224
17 13 8 7 7 6 5 5 5 4 1 358 356 356 356 353 351 348 342 337 330 321 310 294 277 273 272 267 265 262 254 247 242 237 235 229 227 225 225 218 218 221 221
7 10 8 9 8 5 3 0 358 357 355 354 354 352 350 346 342 339 337 335 330 323 315 303 289 274 265 263 260 259 256 259 264 257 242 237 232 229 224 220 221 219 215
1 0 0 2 1 2 1 359 357 355 352 351 351 348 345 342 339 336 332 327 323 319 315 310 300 285 271 262 260 264 266 266 263 260 255 248 238 236 230 222 219 212 206
357 355 355 354 354 354 354 353 354 353 352 351 349 347 345 342 339 335 330 325 321 318 312 306 301 296 281 270 269 270 265 264 258 253 254 250 241 236 234 237 230 230 205
350 350 351 350 349 348 347 347 345 344 348 348 347 346 344 341 337 333 330 326 320 316 312 307 301 294 290 283 276 272 266 262 257 254 249 248 245 242 234 230 225 226 223
347 346 346 344 343 342 343 341 342 341 341 342 343 341 338 334 331 328 325 322 319 314 309 306 301 295 289 284 282 273 268 261 260 255 255 253 252 248 231 216 206 209 206
338 336 335 333 333 336 337 335 335 336 335 337 334 333 332 329 327 324 321 317 315 312 308 304 300 295 291 286 278 278 260 253 253 254 255 251 246 245 225 209 201 201 200
332 331 329 327 327 330 330 329 327 328 329 330 326 325 326 323 321 318 317 313 311 305 304 301 296 292 289 282 277 270 261 253 244 245 243 242 245 243 219 209 204 196 195
324 324 322 319 322 322 322 320 321 321 323 322 321 322 322 322 321 319 319 316 312 305 302 297 296 290 287 278 275 271 264 254 241 234 232 235 237 231 220 210 207 209 196
328 327 321 319 320 320 320 316 315 317 319 319 317 319 319 318 320 319 318 317 313 308 304 301 300 292 287 279 277 271 262 255 250 237 232 235 239 231 219 215 213 207 188
324 325 321 319 319 320 319 314 314 316 316 316 315 317 315 313 315 314 314 312 310 306 307 304 302 298 287 279 280 273 264 261 256 243 235 241 240 232 219 215 204 197 181
315 317 317 316 316 319 318 314 314 315 315 315 316 315 314 314 315 313 312 308 308 306 302 299 294 297 293 285 283 267 263 264 259 252 229 227 229 222 211 208 193 189 180
315 314 313 310 311 314 314 316 316 316 316 314 316 314 314 312 311 311 309 311 305 301 303 301 295 294 290 286 280 270 261 261 258 249 213 203 201 201 200 193 180 177 176
314 312 310 311 311 312 311 314 316 315 315 315 316 313 313 310 312 311 311 312 309 309 307 303 297 296 289 286 288 275 270 269 267 250 201 198 197 193 179 174 170 169 167
Height
761 771 769 762 762 767 767 768 760 776 781 787 794 799 804 809 813 817 820 823 825 827 829 832 834 836 838 841 844 847 850 853 855 858 861 864 865 867 868 869 871 872 874
760 764 765 768 773 773 774 776 775 776 784 791 796 799 804 809 813 816 818 821 823 824 827 829 832 833 836 839 841 844 848 851 853 855 859 862 865 866 866 867 869 871 872
757 764 769 775 773 774 782 779 783 785 788 791 795 800 805 809 812 813 816 818 820 822 824 826 829 830 833 835 838 841 844 847 850 851 853 855 855 858 862 865 866 868 869
777 773 775 776 777 783 786 786 785 787 789 791 795 799 804 807 810 812 813 815 817 819 821 824 826 829 830 833 835 838 841 844 846 849 849 850 851 851 858 861 862 865 866
794 790 790 787 788 785 785 785 784 786 786 791 796 799 803 806 809 810 812 814 815 816 818 820 823 825 827 829 831 834 836 839 842 843 845 848 849 849 850 853 857 860 861
806 802 799 797 795 792 791 792 794 792 790 793 797 797 801 805 809 811 812 813 813 814 815 816 818 821 823 825 827 830 832 834 837 838 840 841 844 846 847 848 850 853 854
814 810 810 809 805 804 800 796 794 794 796 797 797 796 798 800 806 809 811 812 812 812 812 813 815 816 818 820 823 825 826 828 830 833 834 836 837 840 841 843 844 847 849
820 817 815 814 815 809 808 806 805 802 800 801 800 800 801 801 802 805 809 811 810 810 810 810 812 813 815 816 818 819 821 823 824 826 828 830 831 833 836 837 840 844 845
828 828 827 825 824 827 825 813 813 813 810 805 805 801 800 800 802 803 805 806 807 808 808 807 809 809 811 811 812 813 814 816 817 819 821 824 825 827 828 831 832 833 836
834 832 833 835 833 828 825 823 823 822 817 814 811 808 804 805 802 801 802 803 802 801 802 803 804 805 806 805 806 807 807 809 810 811 813 815 817 819 821 824 826 827 827
836 839 836 835 834 833 831 827 826 824 819 814 809 808 806 807 806 804 801 802 800 799 797 798 796 797 798 799 801 800 800 801 803 804 806 807 810 810 813 816 818 818 821
847 846 845 844 840 835 831 829 828 823 818 816 816 815 812 810 808 807 805 803 801 799 795 794 791 791 790 791 791 794 793 792 793 795 797 797 799 802 804 807 808 811 813
851 850 846 842 839 837 834 830 827 824 823 822 819 815 812 811 808 805 804 802 800 797 793 791 788 787 786 784 784 784 785 785 779 786 789 787 789 793 794 795 799 804 807
849 849 848 847 845 841 837 833 830 828 825 822 819 818 815 813 808 804 801 799 797 794 792 789 786 783 781 778 778 778 779 778 774 775 778 778 781 783 783 785 789 793 798
850 848 847 846 844 842 841 838 835 832 827 823 819 817 815 812 808 804 801 797 794 791 788 784 781 777 775 773 771 771 769 767 769 769 768 770 772 775 775 777 782 784 788
853 852 850 847 844 842 839 836 834 831 827 824 821 817 812 809 805 801 798 794 791 787 784 781 777 771 769 766 764 763 762 762 761 760 761 763 764 767 767 770 772 775 779
856 855 853 850 847 844 840 836 833 830 826 823 820 816 812 808 803 799 794 790 786 782 778 775 771 766 761 760 758 758 756 755 753 753 754 755 756 757 759 762 765 767 772
860 858 856 852 850 847 843 839 834 829 825 821 817 814 810 807 803 798 793 788 783 778 773 768 765 761 756 754 753 751 750 748 745 745 745 745 748 749 752 755 757 760 763
863 861 859 856 852 848 845 841 837 833 828 824 818 814 810 805 799 793 788 784 779 774 768 763 759 755 750 749 747 744 740 738 735 735 735 738 740 742 745 748 750 754 758
863 861 858 855 852 849 846 842 837 833 829 825 820 815 809 803 798 793 787 780 775 769 763 757 755 749 743 740 739 738 733 728 728 728 727 728 730 734 737 740 743 746 749
864 862 860 856 853 849 846 842 838 833 829 824 819 813 807 801 794 786 781 776 769 763 756 748 742 737 734 730 728 726 724 719 717 717 716 717 720 723 728 731 734 738 743
862 860 858 855 852 849 845 841 837 832 827 821 816 810 804 798 791 784 776 770 764 756 748 741 734 728 723 719 716 714 712 710 708 705 705 707 711 715 719 724 727 736 739
860 858 856 853 850 847 844 839 834 830 824 819 813 807 801 795 789 783 775 767 761 753 745 737 729 723 717 712 708 704 700 699 699 696 697 700 703 706 711 716 722 730 733
859 857 854 850 847 844 841 837 832 827 822 816 810 803 796 789 783 778 772 764 757 749 742 734 725 717 710 704 701 696 693 691 690 688 689 691 694 699 703 711 716 722 725
857 854 852 849 845 841 837 833 828 824 818 813 807 800 794 787 777 771 766 758 752 746 735 727 718 709 702 697 693 689 685 684 682 681 681 684 688 693 698 703 708 713 722
855 852 849 845 842 838 834 830 826 821 816 809 803 798 790 783 775 766 755 754 745 735 728 719 710 701 694 689 684 680 678 677 676 675 674 676 680 684 689 695 701 708 715